This is the latest recevied weather packets stored in our database for station/object KQ4NAL. If no packets are shown the sender has not sent any weather packets the latest 10 day(s).
| Time | Temp. | Humidity | Pressure | Rain* | Wind** | Luminosity | Snow |
|---|---|---|---|---|---|---|---|
| 1777986468 | 17.22° C | 81% | 1010.6 hPa | 0 mm | - | 173 W/m² | - |
| 1777986166 | 16.67° C | 81% | 1010.6 hPa | 0 mm | - | 186 W/m² | - |
| 1777985863 | 16.67° C | 81% | 1010.6 hPa | 0 mm | - | 147 W/m² | - |
| 1777985560 | 16.67° C | 82% | 1010.6 hPa | 0 mm | - | 129 W/m² | - |
| 1777985256 | 16.67° C | 82% | 1010.5 hPa | 0 mm | - | 153 W/m² | - |
| 1777984953 | 16.67° C | 83% | 1010.6 hPa | 0 mm | - | 176 W/m² | - |
| 1777984649 | 16.67° C | 83% | 1010.4 hPa | 0 mm | - | 182 W/m² | - |
| 1777984346 | 16.11° C | 85% | 1010.5 hPa | 0 mm | - | 188 W/m² | - |
| 1777984042 | 16.11° C | 86% | 1010.3 hPa | 0 mm | - | 184 W/m² | - |
| 1777983740 | 15.56° C | 87% | 1010.1 hPa | 0 mm | - | 149 W/m² | - |
| 1777983436 | 15.56° C | 87% | 1010.3 hPa | 0 mm | - | 100 W/m² | - |
| 1777983133 | 15.56° C | 87% | 1010.3 hPa | 0 mm | - | 75 W/m² | - |
| 1777982829 | 15.56° C | 87% | 1010.7 hPa | 0 mm | - | 62 W/m² | - |
| 1777982525 | 15.56° C | 87% | 1010.7 hPa | 0 mm | - | 75 W/m² | - |
| 1777982219 | 15.56° C | 87% | 1010.7 hPa | 0 mm | - | 83 W/m² | - |
| 1777981917 | 15.56° C | 88% | 1010.7 hPa | 0 mm | - | 88 W/m² | - |
| 1777981614 | 15° C | 88% | 1010.6 hPa | 0 mm | - | 76 W/m² | - |
| 1777981310 | 15° C | 88% | 1010.8 hPa | 0 mm | - | 59 W/m² | - |
| 1777981007 | 15° C | 88% | 1010.6 hPa | 0 mm | - | 39 W/m² | - |
| 1777980703 | 15° C | 88% | 1010.8 hPa | 0 mm | - | 26 W/m² | - |
| 1777980400 | 15° C | 89% | 1010.5 hPa | 0 mm | - | 36 W/m² | - |
| 1777980098 | 15° C | 89% | 1010.5 hPa | 0 mm | - | 29 W/m² | - |
| 1777979797 | 15° C | 88% | 1010.7 hPa | 0 mm | - | 21 W/m² | - |
| 1777979493 | 15° C | 88% | 1010.4 hPa | 0 mm | - | 17 W/m² | - |
| 1777979190 | 15° C | 88% | 1010.4 hPa | 0 mm | - | 17 W/m² | - |
* Rain latest hour (hover to see other rain measurements)
** Current wind speed in m/s (hover to see current wind gust speed)